Location: Waco, TX
(31.5480°N, 97.1670°W)
Time: 22:18:17
(UTC-06:00)

ISS - Pass Details

Date: 13 November 2018
Orbit: 402 x 408 km, 51.6° (Epoch: 17 November)

Event Time Altitude Azimuth Distance (km) Brightness Sun altitude
Rises 22:18:51 0° 228° (SW) 2,298 - -61.0°
Reaches altitude 10° 22:20:55 10° 230° (SW) 1,443 - -61.4°
Maximum altitude 22:24:09 72° 315° (NW) 424 - -62.0°
Drops below altitude 10° 22:27:23 10° 41° (NE) 1,451 - -62.7°
Sets 22:29:29 0° 43° (NE) 2,312 - -63.1°
